Wind_Speed
54 54 55 53 51 52 52 50 56 60 55 53 54 53 53 51 49 48 47 45 43 41 39 37 36 35 34 34 35 36 38 39 39 40 37 34 31 29 28 29 28 27 26 25 24 23 24 24 24 27 26 23 20 19 21 23 25 26 25 23 24 21 18 14 9 8 9 9 11 13 13 12 11 12 13 13 14 16 15 14 13 11 11 11 12 12 13 12
56 55 55 55 53 53 54 49 51 60 60 55 54 55 54 52 51 49 47 45 44 42 39 38 36 36 35 34 36 36 39 41 41 42 37 33 33 29 28 29 30 29 28 28 27 26 26 25 26 27 26 26 23 21 22 24 27 27 26 26 25 21 18 14 10 11 11 10 10 11 11 9 9 11 12 13 14 16 16 15 14 12 12 12 12 13 13 12
59 57 55 56 56 55 55 52 49 56 61 59 56 55 55 54 52 49 47 46 44 42 40 38 36 36 36 36 36 36 39 40 43 44 36 32 34 31 29 31 31 29 29 30 31 30 29 28 29 26 25 27 25 23 24 25 27 28 27 27 25 18 15 13 10 12 12 11 11 11 11 10 10 11 11 13 14 15 16 15 12 11 12 12 11 12 13 13
61 61 59 57 57 57 56 54 51 52 59 62 58 56 57 55 53 50 48 48 45 43 40 37 36 35 35 36 36 37 38 40 47 42 30 33 36 34 34 34 32 31 30 31 32 32 31 30 31 28 25 27 26 24 26 26 26 28 28 27 25 17 13 11 7 9 11 10 10 11 12 12 12 12 13 15 16 16 15 14 12 11 12 12 11 12 13 13
61 62 61 58 58 59 58 56 54 52 56 61 62 58 56 57 55 52 50 48 46 44 40 36 35 33 33 34 35 37 37 41 46 37 27 32 36 35 34 33 33 32 32 33 32 33 33 31 33 31 26 25 26 24 25 26 26 28 28 26 22 18 14 10 7 8 10 11 11 11 12 11 11 13 15 17 17 15 12 13 14 14 14 14 13 13 13 14
62 61 62 58 58 60 59 58 56 54 55 58 63 61 57 57 57 55 52 49 47 45 42 38 34 32 32 33 34 36 40 38 31 28 30 30 31 32 32 32 33 33 34 34 33 34 34 32 33 33 28 25 27 27 24 25 27 27 27 25 21 18 15 11 9 9 11 13 11 11 11 11 11 12 14 16 16 15 14 15 16 16 16 16 16 15 15 14
62 60 63 60 60 61 59 60 58 56 55 55 60 63 58 56 57 57 54 50 48 46 43 39 35 34 32 32 34 33 40 37 17 15 24 25 27 29 30 33 34 35 36 35 35 36 34 32 33 34 32 27 28 30 26 22 25 27 27 25 20 17 15 12 10 10 13 13 11 12 12 12 11 11 13 15 15 16 18 18 18 18 18 17 17 17 16 15
63 61 63 62 62 62 60 61 58 56 57 54 56 62 60 54 57 58 56 52 49 47 45 41 37 35 32 31 32 31 37 36 21 15 16 18 24 27 30 33 33 34 36 36 35 36 34 30 31 35 34 30 28 29 25 21 25 29 28 24 22 17 13 11 9 10 14 13 12 13 12 11 12 12 12 13 15 17 19 19 19 20 19 19 18 18 17 17
62 62 64 63 62 63 61 61 59 57 58 54 52 60 60 54 56 59 58 55 51 49 47 43 39 35 32 30 30 34 35 26 17 20 19 18 23 28 33 32 30 33 36 36 36 36 33 27 28 34 35 34 32 27 22 23 25 30 28 23 23 19 13 10 9 10 13 13 13 12 11 11 12 12 12 13 15 16 17 18 19 19 18 19 19 19 19 18
59 63 66 64 62 63 61 60 59 57 55 54 53 58 61 55 54 57 58 57 53 52 49 45 41 36 34 33 32 36 32 19 13 18 21 22 24 28 32 29 28 32 35 36 36 35 30 26 28 34 34 34 34 28 22 23 21 25 28 25 24 23 18 13 10 11 13 13 13 12 12 12 12 12 12 13 13 14 15 16 17 17 17 17 19 19 20 20
57 62 67 66 63 64 60 57 59 58 53 54 54 57 61 57 53 54 56 58 56 54 52 46 42 39 36 35 36 35 27 20 18 17 18 22 24 25 26 27 28 31 35 35 35 33 27 25 28 31 33 33 32 29 24 22 18 19 25 27 27 26 22 16 13 14 14 14 13 13 13 13 14 14 11 11 11 11 12 13 15 15 15 16 18 19 20 20
57 60 66 65 64 66 62 57 59 61 54 50 53 56 59 58 54 52 54 58 58 56 53 48 44 41 39 39 38 30 22 21 21 18 16 18 19 18 18 21 26 29 31 33 33 30 26 25 27 27 30 34 33 30 25 19 17 18 20 26 29 27 24 19 16 17 16 16 15 15 15 16 17 13 9 10 10 10 11 12 13 13 14 15 16 18 19 19
58 59 63 64 64 67 67 61 60 63 57 49 52 54 56 60 56 51 52 57 59 58 55 50 47 44 43 44 38 29 24 23 23 19 17 18 19 18 17 18 21 23 24 26 27 27 27 26 26 25 28 32 31 31 27 18 17 20 18 23 28 28 27 21 18 18 18 17 16 16 17 19 16 11 9 11 10 11 12 12 12 12 13 14 15 16 17 18
60 59 61 63 63 67 69 65 60 62 60 53 54 56 55 60 58 51 51 55 58 58 56 52 49 47 47 45 37 32 30 27 26 23 19 20 22 23 22 21 20 21 21 20 21 23 26 26 25 25 29 31 29 28 26 19 20 22 19 22 27 29 29 25 19 17 19 19 18 18 20 20 15 10 12 12 12 13 12 12 12 13 12 13 13 14 15 17
62 61 61 62 63 67 70 66 61 59 57 52 52 57 56 56 58 54 50 52 57 58 56 53 51 50 50 46 39 37 36 32 31 27 23 23 23 24 24 24 24 23 22 21 21 21 22 24 26 27 30 33 31 27 25 20 20 23 22 22 26 26 26 27 23 18 18 20 20 19 20 21 17 14 14 14 13 13 13 12 13 13 13 13 13 14 14 16
64 63 62 63 63 68 70 67 64 59 55 52 50 52 53 54 56 54 49 50 54 56 55 55 54 53 51 47 43 42 40 37 33 29 28 27 24 22 19 22 26 25 25 24 23 22 21 22 25 26 28 34 35 29 26 21 19 25 28 24 25 25 22 24 25 23 20 19 21 22 21 20 17 15 17 16 14 13 13 13 14 13 13 13 14 14 14 15
66 64 63 63 63 68 69 64 65 63 56 53 51 49 50 53 54 52 48 49 53 54 55 56 53 52 51 47 45 45 43 39 36 32 31 29 26 23 19 21 25 26 26 25 25 26 26 26 27 27 28 35 36 30 27 27 25 26 29 27 24 24 22 21 23 25 24 22 21 22 24 24 18 14 15 17 16 15 14 14 14 13 13 14 15 15 15 16
66 66 65 64 63 67 68 62 63 67 61 54 52 50 48 52 54 51 48 49 53 50 49 51 48 47 50 51 51 47 43 40 37 35 32 31 28 25 23 21 22 26 28 28 28 29 29 30 30 29 31 38 40 36 33 32 31 27 25 27 24 21 22 21 20 22 25 26 25 25 27 26 22 18 16 16 17 17 16 15 15 14 15 16 16 16 15 16
67 67 66 65 64 65 66 62 60 65 62 55 54 50 46 50 51 49 50 53 55 52 50 54 54 54 56 56 53 45 41 39 38 37 35 33 31 29 26 22 22 27 31 31 31 31 33 33 33 35 39 44 45 41 36 30 29 26 19 20 23 21 22 21 18 19 21 23 26 28 29 28 25 23 21 21 20 19 18 17 17 17 17 17 17 16 15 16
69 68 68 67 65 64 65 64 59 61 63 58 59 56 51 53 55 53 53 53 58 60 60 63 64 62 57 50 48 45 43 42 41 41 38 33 32 32 29 25 25 30 33 32 32 34 35 36 38 41 42 46 45 40 34 25 22 24 20 18 21 23 24 23 21 21 21 23 25 26 28 29 28 25 23 24 25 24 22 21 21 20 18 17 16 16 16 16
70 69 69 68 66 63 64 62 57 60 66 63 62 64 62 62 63 62 57 53 56 62 63 64 64 62 55 48 48 49 48 45 42 40 38 34 32 33 32 30 33 36 34 29 29 34 38 40 42 40 38 41 41 35 30 24 21 24 25 22 20 22 24 25 24 24 24 25 27 26 27 30 28 24 22 24 27 26 24 24 24 23 21 19 18 17 17 17
71 71 71 68 66 64 63 61 59 61 67 66 62 63 67 68 63 56 55 58 57 61 64 62 60 59 56 49 47 49 47 45 44 42 40 37 35 36 35 34 36 38 34 30 32 38 41 44 42 34 33 37 35 31 27 25 24 25 25 22 20 21 22 25 26 26 25 26 26 26 28 30 27 24 23 24 26 26 25 26 25 24 24 22 20 19 19 19
72 72 71 69 66 64 62 60 62 64 66 70 67 62 66 68 63 51 49 57 59 59 63 59 56 56 53 46 41 44 47 46 47 47 44 41 39 38 37 36 37 37 36 36 38 42 42 42 38 30 28 33 32 29 27 27 27 25 23 21 19 20 22 25 25 24 24 25 25 25 26 29 27 25 25 24 26 27 26 27 26 25 24 22 20 21 22 22
73 73 71 69 65 63 62 59 62 67 67 70 69 65 64 63 64 56 48 52 55 56 59 56 52 52 51 46 39 39 43 43 44 46 46 44 40 38 38 37 38 40 39 38 38 40 40 34 32 28 26 31 31 29 29 30 30 27 24 21 18 19 22 24 24 23 24 24 24 23 24 29 30 27 27 24 25 28 28 27 27 25 24 22 21 22 23 23
74 73 71 68 66 63 61 60 65 71 68 67 69 68 66 64 64 61 53 49 50 51 52 48 47 48 49 48 42 37 39 41 41 42 44 44 41 40 38 35 38 42 42 40 38 40 37 27 26 29 28 31 32 30 31 31 31 29 27 23 17 17 19 23 25 22 21 22 23 21 15 20 27 26 25 25 26 27 27 27 28 26 24 23 23 23 24 24
74 73 70 68 66 63 63 65 71 77 73 70 71 68 66 64 60 59 53 42 41 47 48 45 45 48 47 45 43 40 39 41 41 40 42 42 40 38 38 37 39 41 40 41 40 40 37 29 26 29 29 32 34 33 31 29 30 31 29 25 19 16 15 20 25 22 18 18 19 20 15 14 21 20 16 20 25 25 25 26 27 25 24 24 24 23 24 25
74 72 70 69 68 68 71 72 76 83 81 74 73 67 62 57 50 52 45 24 25 42 48 47 46 47 45 41 42 42 40 43 43 42 43 43 40 38 38 38 39 39 41 42 40 40 39 35 32 31 31 34 37 37 33 29 30 31 29 26 21 17 11 14 20 20 18 16 14 17 19 17 22 22 14 15 20 20 23 24 23 23 23 24 24 23 24 24
72 70 69 69 70 70 73 74 78 83 78 73 73 68 63 53 44 50 37 8 13 37 45 46 47 45 41 36 39 44 43 46 47 45 45 43 42 41 40 39 38 38 41 45 45 42 40 40 37 36 35 36 40 39 33 30 30 30 28 25 23 19 14 12 15 18 17 14 12 16 17 12 18 26 21 17 19 18 18 19 18 18 19 20 22 23 23 24
69 68 68 68 69 69 71 73 77 77 69 67 69 65 63 55 48 49 31 7 17 36 40 44 47 43 39 36 39 44 44 44 45 46 46 44 43 43 42 40 38 37 39 46 47 40 36 38 36 36 38 38 38 36 32 30 28 28 28 25 21 17 16 13 14 17 15 13 14 17 17 11 12 26 27 21 23 22 19 19 17 16 16 17 19 21 23 24
67 66 66 68 69 70 72 71 74 76 70 68 66 61 57 55 51 37 15 12 26 33 36 42 47 44 42 41 42 44 43 40 42 45 45 45 45 44 43 39 36 36 38 42 44 40 36 37 37 38 39 37 34 34 35 32 28 29 30 27 20 16 16 16 15 16 10 9 15 18 19 14 8 20 27 23 23 22 20 20 18 18 19 19 19 20 22 23
66 66 66 70 72 72 74 72 74 77 73 70 67 61 55 55 51 25 5 20 33 31 36 43 46 46 44 43 46 46 42 38 41 46 47 47 47 47 44 39 36 36 37 41 43 41 38 37 39 42 40 36 34 36 37 35 33 33 33 30 22 14 14 13 11 12 7 6 12 16 20 19 13 18 24 21 20 18 17 17 15 16 18 19 20 20 21 22
66 66 66 70 72 73 75 74 75 73 69 69 66 64 59 47 34 20 16 27 30 32 43 46 48 50 45 44 47 48 44 39 41 46 50 51 50 52 49 45 46 40 37 45 46 42 40 39 41 41 41 39 37 37 38 37 37 34 32 32 22 9 7 8 4 6 7 6 8 12 16 18 20 25 25 22 20 18 17 17 16 16 16 17 19 21 22 22
65 65 67 71 72 73 76 77 78 74 68 68 66 66 62 35 18 25 33 32 29 37 49 51 52 54 50 47 47 49 45 41 43 45 49 53 52 52 50 48 51 45 39 44 45 38 32 33 40 42 40 41 39 40 41 39 37 35 33 33 23 7 4 5 2 1 5 7 10 13 11 12 17 21 23 24 22 20 20 20 18 17 16 15 17 18 19 19
64 66 70 72 71 73 77 77 78 79 73 70 69 66 49 23 20 38 46 39 34 42 52 54 55 54 50 49 48 50 45 38 42 46 50 54 52 52 51 48 51 49 43 40 41 39 28 23 37 43 40 42 43 41 41 39 36 33 31 30 27 18 10 6 4 4 4 6 11 13 8 7 10 10 14 17 16 18 22 23 20 17 15 14 14 14 15 16
64 68 71 71 70 74 79 78 77 79 74 73 73 61 37 23 33 46 49 46 41 44 53 56 57 54 48 46 45 48 46 38 40 46 51 56 55 55 57 54 54 53 48 40 37 42 35 25 34 41 38 40 42 39 36 35 34 32 31 31 31 30 21 10 9 12 9 4 7 13 12 11 10 9 10 9 9 11 13 16 18 17 16 16 14 11 12 14
65 68 69 69 73 76 79 79 78 77 76 77 70 52 40 40 48 54 55 56 52 52 58 55 55 55 47 42 43 43 41 39 42 46 51 56 56 57 58 56 57 56 53 48 41 40 35 24 30 40 37 36 40 39 36 34 32 32 33 34 31 28 22 13 8 9 8 3 6 12 15 18 15 13 15 15 12 9 7 7 10 12 14 15 12 10 10 10
65 68 67 69 73 74 76 77 75 72 74 77 67 54 52 50 53 60 59 58 57 57 63 58 52 56 50 41 43 44 39 38 43 46 48 50 51 56 58 55 57 58 55 52 44 41 34 20 23 37 36 34 37 37 37 36 34 33 35 35 29 22 22 17 6 4 4 2 6 11 15 18 14 10 14 18 20 18 15 12 12 14 16 15 15 15 14 12
66 67 66 69 70 70 72 69 67 68 70 72 66 60 55 43 43 56 57 53 54 56 62 57 50 57 57 50 49 50 45 42 46 49 48 48 48 55 62 57 56 59 56 52 43 40 37 22 18 33 36 33 35 34 34 37 36 34 33 34 30 20 20 20 10 3 4 2 3 8 13 18 20 16 11 9 11 13 14 12 12 14 15 14 13 12 13 13
66 68 66 68 71 71 71 64 61 66 68 69 63 54 47 38 39 51 56 54 54 55 60 58 52 55 59 60 59 56 52 48 51 52 48 50 48 51 61 59 55 56 55 52 43 39 40 27 18 31 39 36 36 37 38 40 38 33 28 33 36 24 18 23 19 10 7 4 3 4 5 13 25 26 20 14 12 11 11 11 11 11 12 13 13 13 13 14
69 73 69 71 74 72 71 66 64 69 71 70 65 53 49 45 43 48 53 56 55 53 57 60 59 58 57 59 59 58 57 52 54 55 48 50 49 46 55 59 56 55 52 49 42 36 38 32 23 29 37 37 37 42 45 44 42 38 32 34 37 28 18 19 22 19 12 5 4 2 3 14 25 24 21 19 16 15 14 14 16 16 16 15 12 11 12 12
71 70 67 72 77 73 71 69 68 73 73 69 61 52 48 44 43 47 51 54 54 51 53 57 60 62 60 58 56 58 58 52 54 55 48 48 48 43 49 58 58 55 51 49 44 37 36 35 29 30 36 39 38 41 44 41 42 43 40 40 40 36 28 17 14 22 21 10 7 5 5 19 27 22 19 16 12 12 12 12 15 16 14 11 7 7 8 8
75 66 65 72 79 76 73 70 71 73 68 62 56 50 46 40 40 48 49 48 51 51 52 56 59 62 63 62 60 59 59 55 55 56 51 50 52 46 44 52 58 54 50 50 47 40 35 32 28 29 36 39 34 35 40 40 41 43 42 43 41 39 39 25 11 18 23 16 14 9 8 22 31 26 22 17 13 13 12 13 16 16 12 8 8 9 10 11
79 68 62 68 75 74 72 70 70 67 59 57 54 48 46 41 39 48 50 46 48 51 53 55 56 59 60 60 60 59 57 52 51 56 54 49 50 47 39 43 54 53 49 50 48 42 35 29 25 23 27 33 32 31 36 38 40 42 45 46 43 41 42 31 17 16 20 22 19 9 6 17 26 26 25 21 18 17 14 15 19 18 12 11 11 11 12 12
77 68 61 63 67 69 72 71 70 65 57 55 50 42 43 40 37 48 54 50 48 50 51 53 55 57 59 57 57 60 58 48 46 52 53 47 47 45 37 36 47 54 53 51 50 47 36 29 27 18 10 15 19 19 28 39 43 44 46 45 43 42 39 33 24 14 14 24 25 15 12 16 21 27 29 26 22 19 16 18 21 18 14 14 13 12 12 12
71 63 60 62 64 67 70 72 72 69 61 57 51 45 45 40 35 45 54 53 50 49 49 51 53 55 58 58 55 58 60 53 47 49 48 44 43 43 37 31 37 51 56 50 49 49 38 31 33 25 12 11 15 18 31 44 45 41 40 42 43 40 38 37 30 18 18 27 31 31 28 23 25 30 26 23 21 18 17 19 20 18 15 13 12 12 12 13
69 60 58 60 62 68 69 66 66 64 60 58 52 47 48 44 39 42 48 51 51 48 47 49 53 54 54 56 53 53 58 56 49 49 49 45 42 41 40 33 30 40 51 49 45 46 39 33 37 38 33 33 36 37 39 42 43 44 44 45 46 43 42 40 33 32 36 33 36 48 41 23 22 24 19 20 22 19 20 20 18 16 14 12 13 13 12 13
69 64 66 66 63 66 65 59 61 62 61 59 51 47 51 50 46 45 47 50 50 50 47 46 52 55 53 55 55 52 56 57 50 49 52 51 46 41 40 36 30 33 46 49 45 44 42 38 39 42 42 41 41 39 36 34 40 47 49 48 47 45 45 43 42 47 46 32 33 48 43 28 26 23 20 22 22 19 19 18 15 15 14 14 15 14 14 14
68 66 74 76 71 71 70 66 68 67 62 56 48 46 52 52 51 52 51 51 52 52 51 47 49 55 55 56 56 53 54 55 49 47 49 51 49 43 39 37 33 34 42 48 46 45 44 43 42 41 40 40 37 33 32 30 31 37 42 46 47 46 47 49 52 54 49 41 39 38 34 37 37 32 29 26 21 20 19 17 18 18 18 19 19 16 16 14
69 67 76 77 71 76 82 76 71 68 62 54 46 46 52 53 54 56 54 54 54 54 54 51 49 52 53 54 55 55 55 53 49 49 49 50 50 46 43 41 39 39 44 48 47 46 43 40 40 38 37 38 35 30 28 26 24 26 32 39 44 47 48 52 56 56 52 54 51 38 34 40 37 32 33 29 25 26 24 23 25 23 23 24 19 16 16 13
70 70 79 77 63 67 77 71 66 66 61 54 47 47 54 56 56 57 55 55 56 54 55 55 52 50 50 50 51 53 53 53 53 53 51 50 51 49 46 45 45 44 46 47 46 45 42 34 32 35 34 32 32 29 24 22 21 21 22 27 36 45 51 55 57 55 53 55 53 45 45 47 40 35 34 30 30 31 29 29 29 28 27 24 17 16 17 14
69 71 80 77 60 60 71 68 65 66 60 55 51 48 53 57 56 57 55 53 54 55 55 55 52 49 47 47 49 46 43 44 47 48 49 49 50 50 47 45 44 44 46 45 43 45 41 31 27 30 30 30 32 28 23 21 19 17 20 27 34 42 49 53 54 52 51 53 51 49 52 54 47 40 37 35 35 34 32 31 29 28 28 24 19 18 18 18
70 72 78 75 59 58 69 68 64 65 62 58 53 50 53 56 56 56 52 48 49 51 50 50 47 46 46 45 45 39 33 34 37 40 44 45 44 46 46 44 42 42 43 44 42 42 42 36 30 28 28 30 30 26 25 21 13 17 33 41 40 40 41 42 46 49 49 50 50 51 54 52 46 42 41 40 38 35 32 30 27 26 26 23 21 20 19 19
Wind_Direction
217 210 211 212 211 211 211 214 215 213 215 217 216 214 213 213 214 214 213 214 215 217 219 221 223 224 224 224 226 228 232 235 238 239 239 238 234 227 225 228 229 229 229 230 235 233 232 233 227 223 218 213 208 206 211 205 198 199 200 203 205 208 208 202 213 217 209 220 225 220 215 218 227 228 222 215 211 216 218 217 218 213 202 201 199 194 196 196
222 214 210 210 210 209 210 214 215 212 213 216 217 215 213 213 213 214 213 213 215 216 218 220 222 224 224 225 226 228 232 236 240 241 238 238 238 231 228 230 230 232 232 231 234 234 231 228 227 224 218 214 208 206 209 203 198 199 202 205 205 208 209 206 219 220 216 230 235 224 216 217 227 232 229 221 216 217 220 219 217 212 204 202 201 196 198 200
225 219 213 209 209 209 209 212 214 212 211 213 217 216 213 212 212 213 213 213 214 215 217 219 221 223 224 225 226 228 231 237 242 241 237 239 241 236 232 233 233 233 233 232 233 235 232 227 227 222 216 214 209 206 207 202 200 200 204 207 205 208 213 213 223 218 215 228 237 230 221 223 226 227 228 224 221 220 222 224 223 219 208 205 205 199 199 203
227 223 218 210 207 208 209 210 211 211 210 212 216 216 214 212 212 212 213 213 213 213 214 216 219 222 223 224 226 227 231 238 241 239 240 242 241 237 232 231 233 232 232 231 230 233 231 227 229 223 213 212 210 208 206 200 201 204 206 207 205 206 210 211 221 215 211 217 228 231 228 231 232 229 224 220 219 219 220 221 223 224 215 211 211 205 201 203
229 226 222 215 208 207 208 209 210 210 209 210 213 216 214 213 212 211 212 213 212 212 212 213 216 219 221 222 223 226 229 238 241 237 237 240 237 237 234 231 231 230 230 227 225 230 228 224 228 226 215 210 208 207 207 202 202 206 206 205 205 206 207 205 210 214 212 211 218 232 238 239 239 235 228 223 221 220 220 216 217 219 215 212 213 212 206 204
230 227 224 219 211 206 209 209 209 210 208 207 211 214 214 213 212 211 211 212 211 212 211 211 212 215 218 220 223 226 228 234 240 233 229 233 234 235 235 232 230 228 228 224 220 225 226 222 225 227 219 209 207 204 203 202 205 208 207 205 204 207 212 215 217 220 219 220 227 240 247 248 246 241 234 228 224 222 219 215 217 218 215 211 212 215 210 206
229 227 225 222 215 207 208 209 209 211 209 207 209 212 213 213 212 211 210 211 211 211 211 209 210 213 217 220 221 226 228 223 213 213 223 230 231 232 232 231 228 226 224 221 219 222 224 221 222 226 219 208 208 204 198 202 209 209 208 207 204 206 216 221 220 225 228 227 233 243 249 252 248 242 235 230 225 222 221 218 219 220 219 217 215 217 215 209
226 226 225 224 219 211 207 207 208 211 211 209 208 209 211 211 212 211 210 210 210 211 212 209 209 211 215 218 216 218 220 212 202 210 224 230 228 227 228 228 226 223 222 220 220 223 224 222 222 225 217 206 205 200 196 210 216 210 208 208 205 204 209 211 208 220 230 228 230 238 243 243 239 237 234 231 227 224 224 223 223 224 225 225 221 221 220 217
222 224 224 225 222 215 208 206 207 210 211 210 207 208 210 209 211 211 209 209 209 210 212 209 209 210 211 212 211 216 216 205 208 224 227 228 223 221 223 226 225 220 218 217 219 221 221 219 221 223 215 206 200 188 193 215 220 214 210 208 208 206 205 209 209 218 228 226 228 232 231 231 234 236 232 228 226 224 225 226 227 228 230 231 229 226 224 223
220 220 223 225 223 218 210 205 207 207 210 213 210 208 209 207 209 211 209 209 208 209 211 209 208 208 209 210 212 219 214 193 196 216 223 227 224 222 222 223 221 216 212 213 216 218 217 214 219 221 212 207 198 183 191 208 214 218 215 212 210 209 212 215 218 223 226 223 225 228 228 231 234 235 231 230 229 227 227 227 226 226 226 228 230 230 229 227
220 217 221 223 222 220 212 206 205 203 207 214 211 208 209 208 207 209 210 209 208 209 210 208 207 208 209 211 216 219 208 189 191 200 210 218 222 225 223 218 213 212 211 211 214 215 215 215 220 219 211 207 197 187 194 199 203 216 217 216 213 212 215 215 217 223 225 224 225 229 234 234 234 235 232 233 235 232 232 230 228 223 219 220 223 227 228 228
220 217 219 221 221 221 217 208 204 204 207 212 210 206 207 209 206 207 210 209 208 209 210 207 207 209 209 213 216 213 198 189 191 190 192 198 202 207 212 212 206 206 210 211 212 213 215 220 222 220 215 209 198 191 194 195 202 210 213 218 218 216 216 212 211 219 223 225 226 229 234 233 233 232 226 229 230 228 227 225 228 225 219 218 219 222 225 226
220 217 217 220 219 221 222 213 205 204 207 212 212 206 206 208 206 206 210 209 208 210 210 207 207 208 211 215 213 204 196 194 193 186 178 178 176 174 182 195 199 202 210 216 217 218 221 226 226 221 220 213 198 191 194 198 211 210 209 217 219 221 220 211 208 217 219 222 225 228 233 234 232 223 215 226 226 225 225 221 226 227 225 224 221 220 222 225
219 218 217 218 217 218 223 218 207 203 205 214 213 204 204 208 207 206 209 210 208 209 210 208 207 209 213 215 208 202 201 196 196 189 174 175 174 171 176 184 192 199 204 211 216 220 224 227 225 217 218 211 194 189 195 205 217 214 212 216 218 222 222 214 209 216 218 220 224 229 237 238 235 221 217 229 229 230 230 223 225 227 228 228 225 224 224 227
217 217 216 217 216 215 221 219 211 203 203 214 212 203 204 206 206 205 206 210 209 210 211 209 208 209 215 214 204 203 204 198 198 195 183 179 177 175 180 183 187 194 197 201 205 209 214 218 218 213 213 207 193 189 194 206 218 214 215 219 220 222 223 219 215 216 219 222 224 228 239 242 239 231 225 229 233 238 235 224 225 227 227 228 227 226 225 229
214 216 215 216 216 214 218 220 215 207 202 211 213 205 203 203 205 206 206 209 209 209 208 209 209 208 214 213 204 204 205 201 199 197 193 188 184 182 185 187 189 193 199 202 201 202 206 210 213 213 211 203 193 189 192 207 219 214 215 221 223 221 222 223 219 219 222 225 227 228 237 242 241 236 229 229 232 237 232 223 225 226 225 226 226 227 225 228
212 214 214 214 215 213 217 218 217 213 205 207 213 208 202 200 204 207 207 208 208 208 207 207 207 206 212 212 206 205 203 201 199 197 198 195 193 195 199 197 193 193 197 197 195 197 203 206 208 209 210 202 192 186 193 209 214 209 213 219 223 222 222 224 222 223 227 230 232 233 237 240 239 234 229 229 230 232 230 226 231 232 230 227 225 227 225 228
210 211 211 212 213 212 214 214 214 215 209 206 209 209 204 201 204 204 201 203 205 203 202 205 204 204 210 209 205 203 199 200 200 198 197 197 197 198 202 205 200 195 192 191 192 195 199 203 205 206 209 203 192 187 197 208 208 207 211 213 217 222 221 224 223 224 229 233 236 239 241 240 238 236 235 236 235 234 236 236 239 241 239 235 231 229 228 229
209 209 209 210 211 210 211 210 210 210 210 210 210 209 204 199 201 200 193 195 199 195 194 199 200 203 208 206 203 198 195 200 201 200 198 197 197 195 196 203 206 200 192 189 191 195 195 196 200 204 207 203 193 190 198 206 209 211 216 216 218 223 224 225 225 227 232 236 239 241 245 246 244 242 245 248 247 244 243 241 240 241 240 240 239 236 232 231
207 207 208 209 209 208 207 208 205 204 205 208 208 202 194 188 185 185 187 193 201 200 199 201 200 203 207 204 199 195 195 202 204 202 199 197 197 194 191 195 200 198 196 195 192 193 194 194 200 205 206 201 194 192 199 206 209 214 224 231 228 228 230 231 229 231 234 237 240 242 247 249 248 246 247 251 252 249 248 246 245 245 244 243 243 243 239 235
204 205 206 207 207 204 204 204 199 202 205 204 203 196 190 188 181 181 184 190 203 206 204 205 203 203 205 201 198 198 198 201 203 203 200 197 198 196 191 191 195 193 194 200 196 191 195 200 205 207 204 198 194 194 199 204 204 209 220 231 236 233 231 232 232 233 234 237 241 242 245 247 248 246 243 244 248 248 246 247 248 249 249 247 243 242 241 238
202 203 204 205 204 201 203 200 193 200 206 204 203 194 189 194 193 192 193 188 196 206 207 206 203 202 202 198 199 202 202 200 197 199 200 197 197 198 193 190 194 194 190 194 193 188 196 207 208 204 200 195 192 194 198 199 201 205 212 221 232 234 230 229 230 232 234 237 241 243 248 250 250 249 243 239 242 245 243 244 246 247 248 247 245 242 241 238
199 201 203 203 202 199 199 196 192 197 202 204 205 194 186 192 196 199 200 192 191 200 207 207 203 200 200 198 199 203 205 203 197 195 196 196 196 196 196 192 192 194 191 191 192 188 197 209 205 195 194 192 190 193 194 197 203 205 206 212 222 228 229 228 227 229 231 235 240 243 250 254 253 251 246 239 240 243 242 244 245 245 245 245 245 243 240 238
196 199 201 201 199 197 196 192 194 199 201 203 206 200 190 190 196 199 201 196 192 195 203 207 206 203 202 201 201 201 204 207 204 197 194 196 195 193 199 199 192 194 197 197 196 194 200 204 195 188 191 192 194 198 199 205 210 207 206 212 220 226 230 229 227 229 230 233 238 244 255 258 255 253 250 242 241 242 241 243 245 245 245 244 244 241 239 240
193 197 199 198 195 193 190 188 196 203 202 202 205 204 198 192 195 200 202 195 190 195 200 201 200 200 203 204 203 204 204 207 210 205 198 197 196 193 196 200 197 197 199 198 199 202 206 204 192 193 195 195 201 205 205 210 215 214 211 212 223 239 237 226 224 227 228 230 236 239 252 263 258 256 253 245 242 242 240 242 243 242 243 242 241 239 238 240
192 196 196 195 192 188 184 188 199 203 200 200 205 204 200 194 192 199 202 190 183 193 199 198 196 194 197 199 200 201 202 204 208 208 204 200 201 200 196 198 203 204 202 199 203 209 211 209 200 199 198 199 207 212 208 211 218 220 214 207 218 241 236 222 223 225 223 226 233 232 230 254 261 254 248 246 243 241 239 240 242 241 242 242 240 237 235 236
192 193 194 192 189 185 183 190 199 197 192 197 203 202 196 191 191 196 195 183 183 194 197 197 195 193 192 192 193 193 194 199 200 204 207 202 201 205 204 202 203 206 204 199 204 212 211 207 204 204 202 203 210 213 209 211 221 222 213 208 217 227 218 213 221 222 222 226 230 229 226 242 259 253 238 239 239 235 236 237 241 242 242 243 241 237 234 233
191 191 192 190 188 187 185 189 194 192 188 192 198 199 194 191 194 194 187 161 179 192 198 198 194 192 189 186 188 192 197 198 195 197 203 202 200 203 207 210 208 206 205 202 205 211 210 206 204 205 206 207 210 211 209 213 221 220 214 215 221 224 221 219 220 220 223 226 223 224 224 231 259 257 248 243 239 231 231 233 235 240 241 242 239 236 234 233
190 189 190 188 186 189 189 190 195 193 190 191 193 195 197 197 195 190 188 175 167 184 197 197 191 188 186 184 186 192 200 201 197 195 196 198 201 203 206 210 212 208 206 208 210 211 211 208 206 208 213 213 211 209 211 216 219 216 218 223 222 222 226 224 223 224 223 227 229 227 225 226 262 262 256 252 247 239 236 239 238 238 240 238 235 232 232 232
189 188 189 186 185 190 191 192 197 196 194 196 195 194 196 195 189 183 187 177 169 180 191 190 189 186 182 183 184 189 196 198 199 195 191 195 199 203 206 206 210 211 209 211 213 214 215 211 209 214 218 217 212 209 212 215 214 213 218 222 216 209 211 210 213 219 219 236 237 232 232 231 258 267 261 257 254 249 248 250 247 242 241 238 235 233 232 233
187 187 187 186 187 190 191 193 196 195 194 196 197 195 191 184 182 179 160 170 172 179 184 185 186 183 182 183 183 188 193 193 196 193 189 193 197 200 201 198 201 206 208 210 210 213 217 214 212 214 217 216 213 212 212 211 209 212 217 216 204 186 189 198 207 209 215 249 237 233 235 228 228 253 262 264 259 255 252 249 243 240 241 240 238 235 233 235
185 185 186 187 189 191 192 193 194 194 195 195 197 195 182 175 182 180 153 165 174 176 179 183 184 182 183 186 185 187 189 190 194 194 191 191 195 199 199 197 194 192 198 204 204 207 212 213 212 212 213 213 211 210 209 208 209 212 213 206 193 162 165 195 204 205 223 241 225 221 224 226 236 249 258 260 258 257 256 251 243 239 240 239 238 235 232 232
184 183 184 187 190 192 196 196 194 196 197 195 196 188 175 171 183 174 162 166 179 184 186 188 187 184 183 184 186 186 188 191 192 195 196 194 194 199 200 202 199 194 195 198 195 196 203 211 212 210 210 210 209 208 204 202 202 206 206 197 188 154 118 202 229 285 251 238 224 220 222 234 245 254 259 256 254 253 252 249 242 235 232 232 231 229 229 229
182 182 185 189 191 193 198 199 195 196 196 193 188 179 173 175 171 173 176 177 181 187 190 187 182 183 185 184 186 187 187 191 192 193 195 193 193 196 198 200 202 203 201 194 192 192 192 206 210 206 206 206 206 208 208 203 198 201 206 204 201 193 179 193 201 200 220 213 211 211 217 231 225 242 259 250 242 239 240 242 238 227 219 220 224 227 232 235
180 183 187 190 190 192 196 198 194 193 192 187 180 173 175 177 167 174 182 181 178 179 180 181 178 178 183 185 187 189 188 188 192 192 192 192 194 197 199 200 201 205 201 193 193 196 195 204 207 203 205 206 205 206 210 207 201 200 205 208 211 208 201 198 197 203 201 173 196 206 217 233 221 217 227 222 225 225 227 235 234 227 220 218 222 230 240 245
180 185 189 189 190 192 191 191 190 190 190 183 175 174 182 179 176 183 187 186 185 177 171 174 178 176 179 183 185 188 190 190 189 189 192 195 199 200 200 200 200 203 203 197 191 192 195 200 203 200 201 204 204 204 206 206 203 200 200 204 210 210 207 204 192 197 191 177 219 216 226 240 241 239 232 229 236 220 195 210 214 212 211 210 220 239 248 252
181 186 190 191 193 194 189 187 185 187 187 180 174 179 185 184 185 188 187 187 188 180 171 170 177 179 177 180 184 186 190 191 189 189 192 195 201 204 202 202 203 204 207 204 196 192 192 188 194 197 197 200 202 203 205 208 208 205 203 205 206 207 214 214 190 151 164 211 237 223 232 239 235 239 242 241 243 238 233 235 228 223 223 226 242 253 251 248
183 187 191 193 195 196 192 188 186 183 181 177 177 183 186 186 189 187 184 183 181 177 173 170 176 182 180 180 185 187 189 189 189 191 194 196 203 207 203 202 204 205 207 208 204 200 195 184 186 196 197 199 200 200 203 206 211 212 212 209 206 205 210 208 197 170 188 220 270 234 237 238 230 229 234 228 224 222 221 225 228 229 229 231 241 247 244 241
183 186 192 195 195 196 195 192 190 183 175 176 181 186 186 184 189 188 185 183 178 176 176 175 179 183 184 185 185 187 191 192 191 191 195 199 204 208 206 202 202 203 205 207 206 205 200 191 185 193 196 197 197 199 202 203 204 207 210 210 209 210 207 205 206 203 191 195 237 241 239 239 238 240 241 232 218 212 217 232 237 231 229 235 243 249 247 243
184 184 188 195 196 195 195 194 190 179 175 181 186 186 186 186 188 188 187 185 181 180 181 181 181 183 186 188 187 187 191 195 196 194 197 202 202 206 207 204 202 202 203 204 206 207 203 199 192 189 192 195 197 201 205 204 200 199 201 203 206 208 202 205 214 213 204 190 184 189 250 245 244 248 248 242 239 237 235 236 234 230 233 240 245 250 248 242
185 177 175 189 195 191 188 187 183 178 179 186 187 184 184 184 185 185 187 190 188 188 191 189 187 187 187 188 189 189 190 195 199 198 199 203 202 204 207 205 204 201 198 199 204 205 203 202 197 188 190 196 200 204 206 206 206 205 205 205 207 207 198 193 212 215 212 212 203 191 246 250 248 252 250 243 238 231 223 219 218 213 213 218 227 243 250 250
184 171 163 178 189 186 180 178 180 182 184 186 185 183 183 183 184 183 182 188 190 190 192 192 191 190 187 188 191 191 190 194 199 200 202 205 205 205 206 205 204 202 198 197 201 203 201 200 195 190 195 198 201 206 206 206 209 210 212 212 211 211 206 199 201 208 204 212 225 225 254 253 248 248 250 246 237 225 220 218 208 192 188 214 245 248 247 254
181 173 166 176 185 182 178 176 179 183 184 184 183 183 184 183 184 184 180 182 187 187 188 188 189 189 189 189 192 192 191 193 199 202 203 205 206 207 206 204 202 201 199 198 198 199 201 200 190 183 193 198 201 208 208 207 208 209 214 214 211 212 213 211 217 214 203 210 218 221 257 248 242 247 250 247 241 234 229 216 200 189 203 242 261 254 246 254
175 170 166 174 182 180 177 177 179 181 181 181 180 181 185 182 180 183 182 181 185 188 188 188 190 192 192 192 194 195 194 194 199 203 204 205 205 205 206 205 202 201 202 203 200 198 198 199 188 167 160 194 204 213 212 210 209 210 213 212 210 212 211 212 221 220 218 223 219 220 242 237 239 251 250 242 238 235 223 209 203 207 232 252 260 260 257 261
169 164 164 172 179 180 179 180 181 181 179 178 179 182 185 182 181 185 184 183 187 191 190 190 193 196 195 194 195 197 196 196 198 200 203 206 205 204 206 206 205 205 206 207 205 201 197 198 194 182 161 182 199 208 212 209 207 209 213 212 211 212 211 215 218 216 230 233 223 226 238 239 243 248 242 235 235 226 214 214 218 231 246 254 261 265 263 263
167 160 162 169 176 179 181 182 182 180 178 177 179 183 183 179 179 183 184 185 188 192 194 194 195 195 194 193 192 193 195 198 202 203 203 205 206 206 206 205 205 208 208 207 206 204 201 203 207 204 202 205 206 209 213 211 208 211 215 213 212 213 214 216 215 218 226 228 228 233 235 234 240 238 229 232 237 229 226 230 234 243 253 263 273 273 266 263
170 164 165 168 175 182 183 183 183 181 179 179 179 181 183 180 175 176 181 186 189 192 195 197 196 194 193 193 191 191 194 198 204 207 204 204 207 207 205 204 202 205 207 207 206 205 203 206 213 214 216 219 217 216 217 216 215 217 215 213 211 212 213 213 215 222 225 221 230 237 234 230 236 236 233 239 239 234 236 240 247 256 261 269 274 269 264 265
171 169 169 170 174 181 184 185 184 182 180 181 181 181 181 179 175 175 178 183 189 192 192 194 197 198 198 197 194 191 191 195 202 205 203 202 203 202 198 199 199 200 203 205 206 207 207 211 214 214 217 223 224 225 226 224 226 225 220 217 214 211 212 215 219 224 224 223 231 238 237 236 238 240 244 247 245 244 247 251 257 263 266 270 271 261 257 265
171 170 171 173 175 181 185 184 182 181 180 181 183 182 181 180 178 177 179 181 185 191 194 193 194 199 201 201 199 193 191 194 198 202 203 202 201 199 192 191 194 195 198 201 204 206 208 212 215 214 215 220 223 228 231 230 230 230 227 225 222 218 217 220 224 225 225 230 235 238 243 243 241 241 246 247 248 249 251 253 259 265 270 272 267 248 244 257
172 172 173 176 178 183 185 183 179 179 181 183 184 184 184 182 179 178 181 183 183 187 195 197 195 197 199 200 202 200 200 203 203 203 203 201 199 199 194 190 191 191 195 199 201 203 206 210 213 213 213 216 220 222 224 224 225 225 225 226 226 225 225 225 226 225 227 233 238 240 246 249 245 243 245 247 249 251 254 258 262 267 269 270 260 240 240 254
174 176 176 177 179 183 184 182 180 179 182 186 186 184 185 185 182 180 181 187 189 188 192 198 197 195 197 200 204 206 208 211 212 211 211 208 205 204 200 196 192 188 190 197 200 203 205 206 209 209 209 214 217 217 217 218 220 223 224 223 224 226 227 228 228 227 229 234 238 240 244 247 247 246 249 251 253 255 257 259 262 265 269 270 262 249 249 257
178 179 179 179 180 182 183 181 181 182 185 188 187 184 184 186 186 184 180 183 191 193 194 198 198 194 194 199 204 207 208 212 217 218 217 216 214 210 206 204 201 195 192 195 199 203 205 206 207 205 208 215 216 215 214 211 208 223 230 231 229 227 229 230 231 232 233 235 238 239 242 246 249 251 254 257 260 261 261 261 263 265 268 269 264 258 257 258
Height
3033 3038 3042 3047 3051 3055 3059 3063 3067 3072 3076 3079 3083 3087 3091 3095 3099 3102 3105 3109 3113 3116 3119 3121 3124 3126 3129 3132 3134 3137 3138 3138 3139 3139 3141 3144 3147 3150 3152 3154 3156 3157 3159 3159 3160 3163 3166 3168 3168 3168 3170 3173 3175 3176 3177 3179 3180 3181 3182 3183 3183 3185 3186 3187 3188 3188 3188 3189 3189 3189 3189 3189 3190 3190 3191 3192 3193 3193 3194 3195 3196 3197 3198 3198 3199 3200 3200 3201
3028 3032 3037 3042 3046 3050 3055 3059 3063 3067 3072 3076 3079 3084 3088 3092 3096 3100 3103 3107 3110 3114 3117 3119 3122 3124 3127 3130 3132 3135 3135 3135 3135 3134 3139 3144 3145 3148 3150 3152 3154 3155 3157 3159 3160 3161 3164 3167 3167 3168 3170 3172 3174 3175 3176 3177 3178 3180 3181 3181 3182 3184 3185 3186 3187 3187 3188 3189 3189 3189 3189 3189 3189 3190 3190 3191 3192 3192 3193 3194 3195 3196 3197 3198 3198 3200 3200 3200
3023 3027 3031 3036 3041 3046 3050 3054 3058 3063 3068 3072 3076 3080 3085 3089 3093 3097 3101 3104 3107 3111 3114 3118 3120 3123 3125 3127 3130 3132 3132 3133 3129 3130 3139 3143 3143 3146 3148 3150 3151 3153 3155 3157 3158 3159 3162 3165 3166 3168 3170 3171 3172 3173 3174 3176 3177 3178 3179 3180 3182 3183 3185 3185 3186 3186 3187 3188 3188 3188 3189 3189 3189 3189 3189 3190 3191 3192 3193 3193 3195 3196 3197 3197 3198 3199 3200 3200
3018 3022 3026 3031 3036 3040 3045 3050 3054 3059 3064 3068 3072 3076 3081 3086 3090 3094 3098 3101 3105 3108 3112 3115 3118 3121 3123 3125 3128 3129 3130 3129 3123 3129 3140 3140 3140 3143 3144 3146 3148 3151 3153 3155 3157 3157 3160 3163 3165 3167 3168 3169 3171 3172 3173 3174 3176 3177 3178 3179 3181 3183 3184 3184 3185 3185 3186 3186 3187 3188 3188 3188 3188 3188 3188 3189 3190 3191 3192 3193 3195 3195 3196 3197 3198 3198 3199 3200
3012 3017 3021 3026 3031 3036 3041 3045 3050 3055 3059 3064 3069 3072 3077 3082 3087 3091 3095 3098 3102 3106 3109 3113 3116 3119 3121 3123 3125 3126 3129 3125 3121 3132 3139 3135 3137 3139 3141 3143 3145 3148 3150 3152 3155 3155 3157 3161 3163 3165 3166 3168 3169 3171 3173 3174 3175 3176 3177 3179 3181 3182 3183 3183 3184 3185 3185 3185 3186 3187 3187 3187 3187 3187 3187 3187 3188 3190 3192 3193 3194 3194 3195 3196 3197 3198 3198 3199
3007 3012 3017 3021 3026 3031 3036 3041 3046 3050 3054 3060 3064 3069 3074 3078 3083 3088 3091 3095 3099 3103 3107 3110 3113 3116 3118 3120 3122 3123 3124 3122 3124 3132 3134 3133 3135 3137 3139 3140 3142 3146 3147 3150 3153 3153 3155 3158 3161 3163 3165 3166 3168 3170 3173 3174 3175 3175 3177 3178 3180 3181 3181 3182 3182 3184 3185 3185 3185 3186 3186 3186 3186 3186 3186 3186 3188 3190 3191 3192 3192 3193 3194 3195 3196 3196 3197 3198
3002 3006 3011 3017 3022 3026 3031 3036 3041 3046 3050 3055 3060 3065 3070 3075 3080 3084 3088 3092 3096 3101 3104 3107 3110 3113 3115 3117 3118 3119 3118 3120 3126 3129 3130 3133 3135 3136 3137 3137 3139 3143 3144 3147 3150 3151 3153 3156 3159 3161 3163 3165 3167 3169 3171 3173 3173 3174 3175 3177 3179 3180 3180 3181 3181 3183 3183 3184 3184 3185 3185 3185 3185 3185 3185 3185 3187 3188 3189 3190 3191 3192 3193 3194 3194 3195 3197 3198
2997 3001 3006 3012 3017 3022 3026 3032 3037 3042 3046 3051 3056 3061 3065 3071 3076 3080 3085 3089 3093 3098 3101 3105 3107 3110 3113 3114 3115 3115 3113 3120 3126 3127 3129 3131 3132 3133 3133 3133 3137 3140 3142 3145 3147 3150 3152 3155 3158 3159 3161 3164 3164 3167 3170 3172 3172 3172 3174 3176 3178 3179 3179 3180 3180 3181 3182 3182 3183 3183 3184 3184 3184 3184 3184 3185 3186 3186 3187 3188 3189 3190 3191 3192 3194 3195 3195 3196
2992 2996 3001 3006 3011 3017 3022 3027 3033 3038 3043 3048 3053 3058 3062 3068 3072 3076 3081 3086 3090 3094 3098 3102 3105 3108 3111 3112 3113 3111 3112 3122 3126 3126 3127 3128 3129 3129 3129 3132 3136 3138 3140 3142 3145 3147 3150 3154 3156 3156 3159 3160 3160 3163 3168 3170 3171 3172 3174 3176 3177 3178 3178 3179 3179 3180 3181 3181 3182 3182 3183 3183 3182 3182 3183 3183 3184 3185 3186 3187 3188 3189 3190 3191 3192 3193 3194 3195
2987 2991 2996 3000 3006 3013 3017 3023 3028 3034 3040 3045 3049 3054 3059 3064 3069 3073 3078 3082 3087 3091 3096 3100 3103 3106 3107 3109 3109 3108 3114 3123 3123 3123 3125 3125 3126 3126 3127 3131 3134 3136 3138 3140 3142 3145 3149 3153 3153 3155 3157 3157 3159 3162 3165 3167 3169 3172 3173 3175 3176 3176 3177 3177 3178 3179 3180 3180 3181 3181 3182 3182 3181 3181 3181 3182 3183 3184 3185 3186 3187 3188 3189 3190 3191 3192 3193 3193
2982 2986 2991 2995 3001 3007 3013 3018 3024 3030 3035 3040 3046 3051 3056 3061 3066 3070 3074 3079 3083 3088 3092 3097 3101 3103 3105 3106 3106 3108 3116 3120 3120 3121 3122 3122 3125 3126 3127 3130 3132 3135 3137 3139 3142 3145 3148 3150 3151 3154 3156 3156 3158 3161 3163 3165 3168 3170 3171 3173 3174 3174 3175 3176 3177 3178 3178 3179 3180 3180 3181 3181 3180 3180 3181 3181 3182 3183 3184 3185 3185 3186 3187 3188 3189 3190 3190 3192
2976 2981 2986 2990 2995 3002 3009 3014 3020 3026 3030 3034 3041 3047 3052 3057 3062 3067 3071 3075 3080 3084 3089 3094 3098 3100 3103 3103 3103 3109 3116 3117 3118 3119 3119 3120 3122 3124 3127 3130 3131 3134 3137 3139 3142 3145 3147 3148 3149 3152 3154 3154 3156 3160 3162 3164 3166 3168 3169 3171 3171 3172 3173 3174 3175 3176 3177 3178 3178 3179 3179 3179 3178 3179 3180 3180 3181 3182 3182 3183 3184 3184 3185 3186 3187 3187 3188 3190
2971 2976 2980 2985 2990 2996 3004 3010 3016 3022 3027 3031 3037 3044 3049 3054 3059 3063 3067 3072 3077 3081 3086 3091 3094 3098 3099 3098 3102 3109 3113 3115 3117 3117 3117 3118 3119 3122 3126 3129 3132 3134 3137 3140 3142 3144 3145 3146 3148 3151 3152 3153 3156 3159 3162 3163 3164 3166 3168 3169 3170 3170 3171 3172 3173 3174 3176 3176 3177 3178 3177 3176 3178 3179 3180 3179 3180 3180 3181 3181 3182 3183 3183 3184 3185 3186 3187 3187
2965 2970 2975 2979 2985 2992 2998 3006 3013 3018 3024 3029 3033 3040 3045 3050 3055 3060 3065 3069 3074 3078 3082 3087 3091 3094 3094 3095 3102 3107 3110 3113 3115 3115 3117 3118 3119 3121 3124 3127 3131 3133 3136 3139 3141 3142 3143 3144 3147 3150 3151 3153 3156 3158 3161 3163 3163 3165 3166 3167 3167 3167 3168 3170 3172 3172 3174 3175 3175 3176 3175 3175 3177 3179 3179 3178 3179 3179 3179 3180 3181 3181 3182 3182 3183 3184 3185 3186
2959 2964 2970 2974 2980 2987 2992 2999 3009 3015 3020 3025 3029 3034 3040 3046 3052 3057 3061 3065 3070 3075 3079 3083 3087 3090 3090 3094 3100 3103 3106 3110 3111 3114 3116 3117 3119 3121 3123 3126 3129 3132 3135 3137 3138 3139 3141 3142 3144 3148 3150 3153 3155 3156 3160 3162 3162 3164 3164 3163 3164 3165 3166 3168 3170 3171 3172 3173 3174 3174 3174 3174 3176 3178 3178 3177 3177 3177 3178 3179 3179 3180 3180 3181 3182 3183 3183 3184
2953 2958 2964 2969 2974 2982 2987 2993 3004 3012 3017 3021 3025 3030 3036 3042 3048 3053 3057 3062 3067 3070 3075 3078 3081 3085 3086 3090 3096 3098 3101 3105 3108 3112 3114 3116 3119 3122 3124 3126 3127 3130 3133 3135 3137 3138 3139 3140 3142 3146 3148 3151 3152 3154 3158 3160 3160 3161 3161 3161 3162 3163 3165 3166 3168 3169 3171 3172 3172 3173 3172 3173 3174 3176 3176 3176 3176 3176 3176 3177 3178 3178 3179 3179 3180 3181 3182 3182
2947 2952 2959 2965 2970 2976 2982 2988 2998 3007 3013 3017 3021 3027 3033 3039 3044 3050 3054 3057 3061 3066 3071 3073 3077 3082 3084 3087 3092 3093 3096 3102 3106 3110 3112 3115 3118 3120 3123 3124 3126 3129 3131 3134 3135 3136 3137 3138 3139 3143 3145 3147 3149 3152 3155 3154 3154 3156 3158 3159 3161 3162 3164 3164 3166 3167 3169 3170 3170 3171 3171 3171 3173 3174 3174 3175 3175 3175 3175 3176 3176 3177 3177 3178 3178 3179 3180 3181
2940 2946 2953 2959 2965 2972 2978 2984 2992 3001 3009 3014 3018 3024 3030 3036 3041 3046 3048 3050 3056 3062 3068 3071 3076 3079 3077 3079 3083 3087 3094 3100 3104 3108 3110 3113 3115 3118 3121 3123 3125 3126 3128 3131 3131 3133 3134 3136 3138 3140 3142 3143 3145 3146 3147 3146 3149 3154 3156 3157 3159 3160 3162 3163 3164 3166 3167 3168 3169 3169 3169 3169 3171 3173 3173 3173 3173 3174 3174 3175 3175 3175 3175 3176 3176 3177 3178 3179
2934 2940 2947 2953 2959 2967 2974 2980 2987 2996 3005 3012 3016 3022 3028 3032 3038 3041 3038 3038 3044 3050 3055 3059 3064 3065 3063 3069 3079 3087 3094 3098 3102 3105 3107 3110 3112 3115 3118 3121 3123 3124 3125 3126 3128 3129 3130 3133 3134 3133 3132 3134 3138 3140 3143 3146 3150 3154 3156 3157 3158 3159 3160 3161 3164 3165 3166 3167 3167 3167 3167 3168 3169 3170 3171 3171 3171 3172 3172 3173 3173 3173 3173 3174 3174 3175 3177 3178
2927 2934 2941 2947 2954 2962 2969 2976 2983 2992 3001 3006 3008 3013 3018 3019 3024 3029 3029 3033 3040 3045 3048 3051 3056 3058 3061 3071 3082 3086 3089 3093 3097 3100 3103 3107 3110 3112 3115 3118 3120 3121 3122 3122 3124 3126 3128 3129 3125 3123 3125 3130 3136 3140 3143 3147 3151 3154 3156 3157 3157 3158 3159 3160 3162 3164 3164 3164 3164 3166 3166 3165 3166 3168 3169 3169 3168 3169 3170 3170 3170 3171 3171 3172 3173 3174 3175 3176
2920 2928 2934 2941 2949 2957 2964 2972 2980 2986 2994 3000 2999 2999 3002 3005 3007 3011 3018 3030 3041 3046 3048 3052 3056 3058 3062 3073 3079 3080 3082 3087 3093 3098 3102 3105 3107 3109 3111 3113 3115 3116 3119 3122 3124 3125 3126 3123 3120 3121 3126 3132 3137 3141 3144 3148 3151 3153 3154 3155 3155 3156 3157 3159 3160 3161 3162 3161 3162 3163 3163 3162 3163 3165 3167 3166 3165 3166 3167 3168 3168 3168 3169 3170 3171 3172 3173 3174
2913 2921 2928 2936 2944 2952 2960 2968 2976 2983 2989 2994 2994 2994 2997 3002 3007 3010 3014 3022 3032 3041 3044 3048 3052 3055 3061 3069 3073 3077 3081 3085 3089 3094 3098 3101 3103 3105 3108 3109 3112 3114 3118 3122 3122 3122 3122 3118 3119 3125 3129 3133 3138 3141 3144 3147 3149 3150 3152 3153 3153 3153 3155 3156 3157 3158 3159 3159 3160 3161 3160 3159 3161 3162 3163 3163 3163 3164 3165 3165 3165 3166 3167 3167 3168 3169 3170 3172
2906 2915 2923 2931 2939 2948 2956 2963 2973 2979 2982 2983 2988 2994 2996 3000 3009 3015 3019 3021 3027 3035 3040 3043 3049 3054 3059 3064 3068 3073 3078 3081 3084 3087 3092 3096 3099 3102 3105 3107 3110 3114 3117 3117 3117 3117 3117 3116 3120 3127 3130 3134 3137 3140 3143 3145 3146 3147 3148 3149 3150 3151 3153 3153 3154 3156 3157 3157 3158 3158 3158 3157 3158 3159 3159 3160 3161 3161 3162 3162 3162 3163 3164 3165 3166 3167 3167 3169
2900 2909 2917 2926 2935 2944 2951 2961 2969 2972 2975 2980 2987 2993 2995 2999 3006 3012 3019 3024 3028 3031 3036 3043 3051 3055 3059 3064 3068 3072 3076 3081 3084 3086 3089 3092 3096 3101 3104 3106 3109 3111 3113 3114 3116 3116 3115 3117 3123 3127 3130 3133 3136 3138 3140 3141 3142 3144 3145 3147 3148 3150 3151 3151 3153 3154 3155 3156 3156 3157 3156 3153 3154 3155 3155 3158 3158 3157 3158 3159 3159 3160 3161 3162 3163 3163 3164 3165
2894 2904 2913 2922 2931 2939 2950 2959 2961 2963 2971 2979 2982 2987 2993 2997 3004 3011 3017 3022 3027 3031 3034 3040 3046 3052 3058 3064 3068 3072 3077 3081 3084 3087 3089 3092 3095 3098 3102 3107 3108 3108 3110 3113 3116 3116 3117 3121 3125 3126 3128 3131 3134 3135 3136 3138 3140 3142 3143 3145 3147 3149 3149 3150 3151 3152 3153 3153 3153 3156 3155 3150 3150 3152 3152 3154 3154 3154 3155 3156 3156 3157 3158 3159 3160 3160 3162 3163
2890 2899 2908 2917 2926 2937 2946 2950 2953 2957 2965 2972 2975 2983 2991 2996 3003 3011 3017 3021 3024 3027 3031 3037 3043 3047 3053 3058 3064 3071 3075 3077 3081 3087 3090 3093 3096 3098 3101 3104 3105 3107 3110 3114 3116 3115 3116 3121 3124 3125 3126 3129 3132 3132 3134 3137 3139 3139 3141 3144 3146 3147 3147 3148 3149 3150 3151 3151 3152 3154 3153 3149 3147 3149 3150 3150 3150 3150 3152 3152 3153 3154 3155 3156 3157 3158 3159 3160
2885 2895 2904 2913 2922 2929 2934 2940 2947 2950 2952 2960 2971 2981 2989 2995 3003 3010 3016 3021 3022 3022 3028 3034 3040 3045 3049 3054 3060 3065 3067 3070 3077 3083 3086 3090 3094 3097 3099 3100 3102 3105 3109 3113 3113 3110 3112 3117 3120 3122 3125 3127 3127 3128 3131 3135 3137 3137 3140 3144 3145 3146 3146 3147 3148 3149 3149 3149 3150 3150 3151 3149 3145 3145 3148 3147 3146 3148 3148 3149 3150 3152 3152 3153 3154 3155 3156 3157
2882 2892 2901 2909 2917 2923 2929 2935 2940 2942 2946 2955 2967 2979 2986 2994 3003 3007 3010 3015 3016 3018 3024 3031 3038 3045 3050 3054 3058 3060 3062 3066 3071 3075 3082 3088 3090 3093 3096 3098 3100 3104 3107 3109 3106 3105 3109 3113 3115 3118 3121 3122 3123 3126 3130 3134 3135 3137 3140 3143 3144 3145 3146 3147 3147 3148 3148 3148 3148 3147 3149 3149 3143 3142 3145 3145 3144 3145 3145 3146 3148 3148 3149 3150 3151 3152 3153 3154
2880 2890 2897 2906 2916 2924 2931 2934 2936 2941 2949 2955 2963 2975 2983 2992 3000 3002 3002 3006 3008 3012 3020 3028 3037 3043 3047 3051 3055 3058 3062 3065 3068 3072 3079 3084 3087 3090 3092 3095 3100 3103 3106 3107 3106 3107 3111 3113 3115 3118 3118 3119 3122 3128 3131 3133 3134 3137 3140 3141 3143 3144 3145 3146 3147 3147 3148 3146 3145 3146 3147 3146 3141 3138 3141 3142 3142 3142 3143 3145 3146 3146 3147 3147 3148 3149 3149 3150
2879 2887 2896 2904 2912 2919 2926 2933 2936 2939 2946 2953 2961 2970 2980 2988 2992 2992 2994 2997 3000 3008 3016 3024 3032 3037 3042 3047 3051 3055 3059 3062 3066 3071 3076 3080 3084 3087 3090 3095 3100 3103 3105 3107 3108 3110 3111 3112 3115 3116 3116 3118 3124 3127 3129 3131 3134 3136 3138 3139 3141 3142 3143 3145 3145 3146 3147 3144 3142 3143 3144 3145 3141 3135 3136 3139 3139 3140 3141 3142 3143 3144 3144 3144 3145 3146 3146 3147
2877 2885 2893 2900 2906 2911 2918 2925 2930 2935 2943 2951 2958 2967 2975 2981 2982 2983 2986 2989 2996 3006 3012 3019 3029 3035 3039 3041 3045 3051 3055 3058 3062 3066 3071 3076 3080 3082 3085 3090 3095 3100 3103 3104 3105 3107 3109 3110 3110 3110 3113 3117 3121 3124 3126 3129 3131 3133 3134 3136 3138 3141 3142 3143 3143 3145 3145 3141 3140 3141 3142 3142 3138 3133 3134 3136 3137 3138 3139 3139 3140 3141 3141 3142 3142 3143 3144 3145
2875 2883 2892 2898 2904 2909 2913 2918 2925 2933 2941 2948 2954 2961 2968 2974 2975 2974 2978 2985 2994 3001 3005 3014 3025 3031 3036 3040 3042 3046 3051 3054 3058 3062 3065 3068 3072 3075 3077 3079 3082 3087 3091 3093 3097 3101 3104 3105 3106 3107 3110 3114 3117 3119 3122 3125 3127 3129 3130 3132 3135 3138 3140 3141 3142 3142 3141 3139 3139 3139 3139 3138 3132 3130 3133 3133 3134 3136 3136 3137 3137 3138 3139 3139 3139 3140 3141 3141
2874 2882 2891 2897 2903 2908 2911 2917 2924 2930 2936 2944 2952 2958 2962 2965 2965 2966 2972 2980 2987 2994 3002 3012 3021 3027 3032 3036 3039 3043 3047 3051 3054 3059 3063 3066 3069 3072 3075 3078 3079 3079 3080 3085 3091 3096 3100 3102 3102 3104 3107 3110 3112 3114 3115 3117 3120 3123 3125 3127 3130 3133 3137 3139 3140 3140 3139 3137 3137 3138 3139 3134 3128 3129 3130 3129 3131 3133 3132 3133 3134 3135 3136 3136 3137 3137 3138 3139
2873 2882 2889 2895 2902 2907 2909 2914 2922 2926 2932 2940 2947 2953 2956 2957 2958 2962 2968 2975 2982 2991 3000 3008 3017 3027 3031 3032 3036 3039 3044 3049 3052 3056 3061 3063 3066 3069 3072 3075 3078 3079 3080 3086 3090 3092 3095 3095 3095 3098 3101 3104 3108 3110 3112 3115 3119 3122 3125 3127 3127 3127 3130 3133 3135 3136 3136 3135 3136 3138 3136 3129 3125 3126 3126 3126 3127 3128 3128 3129 3130 3132 3133 3134 3135 3135 3136 3137
2873 2881 2886 2892 2900 2904 2905 2910 2919 2925 2929 2935 2942 2947 2949 2950 2953 2958 2963 2969 2979 2989 2998 3008 3016 3023 3030 3033 3036 3039 3041 3045 3049 3054 3056 3057 3058 3060 3063 3067 3071 3074 3077 3082 3085 3087 3089 3089 3090 3095 3099 3102 3106 3110 3114 3117 3119 3121 3124 3125 3125 3124 3127 3130 3131 3131 3132 3134 3134 3133 3129 3123 3122 3124 3125 3124 3124 3125 3125 3126 3127 3129 3131 3132 3133 3133 3134 3134
2872 2878 2882 2887 2894 2898 2900 2907 2916 2922 2925 2931 2938 2942 2943 2944 2947 2952 2957 2962 2969 2978 2991 3006 3014 3017 3024 3030 3033 3038 3042 3043 3046 3051 3053 3054 3056 3057 3059 3062 3065 3068 3070 3073 3076 3080 3084 3087 3089 3093 3097 3101 3105 3108 3112 3114 3115 3117 3119 3119 3121 3124 3127 3128 3128 3130 3131 3131 3128 3125 3123 3121 3122 3123 3123 3123 3123 3123 3124 3124 3126 3127 3128 3130 3131 3131 3132 3132
2867 2872 2878 2883 2888 2894 2899 2906 2914 2920 2924 2927 2931 2935 2941 2944 2944 2947 2953 2957 2963 2971 2981 2993 3003 3009 3016 3023 3029 3034 3039 3043 3045 3047 3050 3053 3054 3054 3057 3060 3062 3065 3067 3070 3073 3075 3080 3085 3088 3092 3095 3099 3102 3106 3109 3110 3112 3113 3114 3116 3121 3125 3126 3125 3127 3128 3130 3128 3124 3121 3120 3120 3121 3120 3120 3121 3121 3122 3123 3123 3125 3125 3126 3127 3128 3129 3130 3130
2863 2870 2876 2881 2886 2892 2899 2907 2913 2918 2922 2927 2930 2933 2939 2944 2946 2948 2951 2956 2964 2972 2979 2986 2994 3000 3006 3012 3020 3027 3033 3036 3039 3042 3046 3048 3047 3047 3051 3055 3058 3062 3066 3071 3074 3076 3079 3084 3088 3091 3094 3098 3101 3104 3106 3107 3109 3110 3112 3116 3119 3120 3120 3121 3123 3124 3125 3126 3122 3118 3118 3117 3117 3117 3118 3118 3118 3119 3120 3122 3123 3123 3124 3125 3126 3127 3127 3128
2861 2868 2874 2879 2885 2891 2897 2905 2913 2917 2921 2923 2927 2932 2938 2943 2947 2949 2950 2955 2962 2970 2977 2983 2989 2996 3000 3003 3009 3019 3026 3029 3031 3034 3038 3039 3040 3042 3046 3050 3054 3059 3064 3069 3072 3074 3077 3081 3085 3088 3091 3095 3098 3099 3099 3100 3104 3107 3111 3113 3114 3114 3115 3116 3118 3117 3119 3122 3120 3117 3115 3112 3111 3114 3116 3117 3117 3118 3119 3120 3121 3121 3122 3123 3123 3124 3125 3125
2861 2864 2869 2876 2883 2888 2897 2905 2911 2914 2916 2917 2921 2929 2935 2939 2944 2949 2951 2954 2959 2967 2973 2979 2984 2991 2998 3003 3008 3014 3021 3026 3028 3030 3031 3032 3035 3039 3043 3047 3051 3055 3062 3068 3071 3074 3076 3078 3081 3085 3088 3091 3091 3091 3091 3094 3098 3102 3105 3107 3108 3111 3113 3114 3115 3114 3114 3116 3116 3116 3112 3106 3106 3111 3113 3114 3115 3116 3117 3118 3118 3119 3120 3121 3121 3122 3122 3123
2859 2859 2864 2874 2879 2884 2893 2901 2906 2910 2911 2914 2920 2928 2934 2937 2940 2947 2952 2955 2960 2967 2972 2978 2981 2985 2992 3000 3006 3010 3016 3023 3026 3027 3028 3029 3032 3035 3038 3043 3047 3052 3059 3064 3068 3071 3073 3075 3077 3081 3083 3084 3086 3087 3090 3095 3097 3098 3100 3101 3102 3105 3107 3109 3110 3109 3110 3111 3111 3112 3106 3099 3104 3108 3109 3111 3113 3113 3115 3115 3116 3117 3118 3119 3119 3120 3121 3121
2854 2856 2861 2869 2874 2880 2889 2896 2902 2906 2908 2912 2920 2927 2933 2937 2939 2944 2950 2956 2962 2967 2973 2977 2981 2984 2988 2994 3001 3006 3011 3016 3020 3023 3024 3025 3028 3031 3035 3040 3045 3051 3055 3059 3063 3067 3070 3073 3075 3078 3080 3082 3085 3087 3090 3093 3095 3097 3098 3098 3100 3102 3102 3103 3103 3104 3108 3108 3107 3108 3101 3094 3100 3106 3106 3108 3111 3111 3113 3113 3114 3115 3116 3117 3117 3118 3119 3120
2850 2855 2861 2867 2873 2880 2888 2893 2899 2904 2906 2912 2921 2927 2931 2934 2937 2941 2948 2954 2960 2965 2970 2975 2980 2984 2988 2993 2999 3004 3008 3013 3017 3019 3021 3024 3028 3031 3035 3039 3044 3050 3054 3056 3060 3064 3068 3071 3073 3077 3080 3083 3085 3087 3089 3091 3093 3093 3092 3093 3096 3098 3099 3102 3102 3103 3106 3104 3104 3107 3098 3089 3096 3104 3103 3105 3107 3108 3110 3111 3112 3113 3113 3114 3116 3116 3117 3118
2846 2854 2861 2869 2877 2882 2884 2886 2891 2897 2904 2913 2921 2927 2931 2933 2935 2937 2943 2949 2955 2961 2967 2972 2976 2981 2986 2992 2996 3000 3005 3010 3015 3017 3020 3023 3027 3031 3035 3037 3041 3046 3048 3050 3053 3058 3063 3066 3069 3074 3080 3084 3086 3087 3086 3085 3085 3084 3085 3088 3091 3094 3098 3101 3101 3104 3104 3101 3103 3103 3090 3084 3094 3100 3099 3102 3104 3105 3108 3109 3110 3111 3112 3113 3114 3114 3115 3116
2844 2853 2862 2870 2877 2881 2884 2885 2887 2891 2899 2909 2917 2922 2926 2931 2935 2936 2940 2947 2952 2958 2964 2969 2974 2980 2985 2990 2995 2999 3003 3006 3010 3014 3018 3022 3026 3030 3034 3037 3040 3042 3045 3048 3052 3056 3060 3062 3063 3066 3071 3075 3075 3072 3069 3070 3075 3078 3081 3085 3089 3093 3096 3097 3101 3104 3100 3096 3098 3092 3081 3082 3091 3094 3096 3100 3102 3103 3106 3107 3108 3110 3111 3111 3112 3112 3113 3113
2840 2849 2859 2869 2876 2880 2882 2885 2889 2893 2899 2906 2913 2918 2921 2926 2932 2937 2942 2946 2951 2957 2963 2968 2973 2979 2984 2988 2993 2999 3002 3006 3008 3011 3014 3019 3024 3027 3031 3035 3038 3041 3044 3048 3052 3056 3059 3060 3060 3060 3061 3060 3059 3059 3061 3066 3072 3075 3077 3081 3086 3090 3092 3095 3099 3096 3090 3091 3089 3079 3076 3084 3088 3090 3095 3098 3099 3101 3103 3104 3106 3108 3108 3109 3109 3110 3110 3111
2839 2842 2846 2856 2868 2877 2881 2885 2890 2894 2900 2905 2909 2913 2917 2921 2927 2934 2940 2944 2949 2956 2963 2968 2972 2975 2979 2983 2989 2994 2999 3003 3006 3008 3011 3015 3019 3024 3029 3033 3036 3039 3043 3046 3049 3053 3056 3056 3056 3058 3059 3059 3060 3061 3064 3068 3070 3070 3073 3077 3081 3085 3088 3091 3089 3083 3083 3087 3078 3070 3078 3085 3085 3089 3094 3095 3097 3099 3101 3102 3104 3105 3105 3106 3107 3107 3108 3108
2838 2840 2841 2841 2847 2858 2868 2875 2882 2890 2898 2905 2909 2911 2914 2917 2921 2926 2933 2940 2947 2954 2960 2965 2969 2971 2974 2978 2983 2989 2994 2999 3002 3005 3008 3011 3015 3019 3025 3029 3033 3036 3039 3043 3046 3049 3051 3051 3052 3056 3058 3060 3061 3062 3064 3067 3069 3071 3073 3075 3078 3081 3083 3083 3078 3076 3079 3078 3069 3071 3080 3081 3082 3088 3091 3093 3097 3098 3099 3100 3101 3101 3103 3103 3104 3105 3106 3107
2834 2838 2843 2844 2844 2848 2854 2864 2876 2887 2897 2903 2907 2909 2912 2915 2918 2922 2928 2935 2943 2950 2954 2958 2962 2967 2971 2975 2979 2982 2986 2990 2994 2997 3001 3005 3009 3013 3017 3022 3026 3030 3034 3038 3041 3044 3047 3049 3051 3055 3057 3058 3060 3061 3063 3066 3068 3069 3071 3073 3075 3078 3078 3075 3071 3072 3075 3072 3070 3075 3078 3076 3081 3087 3089 3092 3095 3095 3096 3097 3097 3099 3100 3100 3101 3102 3104 3105
2832 2835 2838 2844 2848 2852 2859 2868 2878 2887 2896 2901 2903 2906 2909 2912 2915 2920 2926 2931 2936 2943 2948 2952 2957 2962 2967 2971 2974 2976 2979 2982 2985 2990 2995 3000 3004 3007 3011 3014 3018 3024 3030 3034 3037 3040 3044 3047 3049 3052 3055 3057 3058 3059 3061 3064 3065 3066 3068 3070 3071 3072 3070 3067 3066 3071 3075 3071 3071 3077 3076 3072 3077 3084 3086 3089 3090 3091 3093 3094 3094 3096 3096 3097 3099 3100 3101 3102
2833 2836 2838 2842 2847 2854 2863 2872 2879 2886 2892 2896 2898 2903 2907 2911 2914 2918 2924 2931 2934 2937 2942 2948 2954 2960 2965 2969 2971 2974 2978 2983 2986 2989 2992 2995 2999 3003 3007 3011 3016 3021 3026 3031 3035 3037 3041 3045 3047 3051 3054 3054 3055 3057 3059 3061 3063 3065 3065 3064 3063 3062 3061 3061 3065 3071 3072 3069 3071 3076 3070 3065 3071 3080 3083 3084 3085 3087 3089 3091 3092 3092 3092 3094 3096 3097 3098 3099
2834 2838 2841 2843 2848 2854 2862 2871 2880 2885 2886 2889 2895 2900 2904 2909 2914 2917 2923 2930 2936 2939 2943 2949 2955 2959 2963 2966 2969 2975 2981 2986 2988 2991 2994 2997 3001 3004 3008 3012 3016 3019 3023 3029 3033 3036 3039 3042 3044 3048 3050 3050 3052 3055 3057 3060 3063 3059 3054 3053 3056 3057 3058 3061 3065 3066 3066 3066 3069 3068 3062 3062 3071 3077 3078 3080 3082 3084 3086 3088 3089 3089 3090 3091 3092 3093 3094 3095